{"data":{"norad_id":59770,"intl_designator":"2024-091T","name":"STARLINK-31829","alt_names":[],"object_type":"PAYLOAD","status":"ACTIVE","operator":null,"country":"US","launch_date":"2024-05-14","launch_site_code":"AFWTR","launch_vehicle":null,"mission":null,"orbit_class":"UNKNOWN","rcs_meters":null,"size_class":null,"mass_kg":null,"dimensions":null,"purposes":["comms"],"wikipedia_slug":null,"has_3d_model":false,"image_url":null,"decayed_at":null,"tle_current":{"epoch":"2026-05-25T02:33:05.543424Z","epoch_age_seconds":61868,"freshness":"FRESH","line1":"1 59770U 24091T   26145.10631416  .00000809  00000+0  39451-4 0  9996","line2":"2 59770  53.1612  31.9746 0001169  70.5988 289.5139 15.30193967114706","mean_motion":15.30193967,"eccentricity":0.0001169,"inclination_deg":53.1612,"raan_deg":31.9746,"arg_perigee_deg":70.5988,"mean_anomaly_deg":289.5139,"bstar":3.9451e-5,"rev_number":11470,"period_min":94.105716729701,"perigee_km":474.43192396636,"apogee_km":476.03424189175,"semimajor_km":6853.3700829291,"source":"CELESTRAK","updated_at":"2026-05-25T13:38:19.059636Z"}}}